When you browse on this site, cookies collect data to enhance your experience and personalize the content and advertising you see.
Visit our Privacy Policy to learn more. By continuing to use the site, you agree to this use of cookies and data.
  • In United Kingdom
  • List of Countries
  • For 7 days
  • Water Temperature
  • Satellite Maps
  • Weather Map
  • Weather Widgets
  • user-avatar
    Login

    Hourly Weather Santa Cruz Xoxocotlan

    Today, 20 January, Sunday

    Time Temperature Precipitation Wind Pressure Humidity
    00:00 +16°C° 0 mm 2 mps 636 mmHg 81%
    01:00 +15°C° 0 mm 2 mps 636 mmHg 80%
    02:00 +15°C° 0 mm 2 mps 635 mmHg 80%
    03:00 +13°C° 0 mm 3 mps 635 mmHg 80%
    04:00 +12°C° 0 mm 3 mps 635 mmHg 80%
    05:00 +12°C° 0 mm 3 mps 635 mmHg 80%
    06:00 +12°C° 0 mm 2 mps 635 mmHg 80%
    07:00 +12°C° 0 mm 3 mps 636 mmHg 75%
    08:00 +13°C° 0 mm 3 mps 636 mmHg 70%
    09:00 +13°C° 0 mm 3 mps 637 mmHg 66%
    10:00 +16°C° 0 mm 3 mps 637 mmHg 60%
    11:00 +18°C° 0 mm 3 mps 638 mmHg 54%
    12:00 +20°C° 0 mm 3 mps 638 mmHg 48%
    13:00 +20°C° 0 mm 3 mps 638 mmHg 46%
    14:00 +21°C° 0 mm 3 mps 638 mmHg 44%
    15:00 +21°C° 0 mm 3 mps 637 mmHg 42%
    16:00 +20°C° 0 mm 3 mps 637 mmHg 48%
    17:00 +18°C° 0 mm 3 mps 636 mmHg 54%
    18:00 +16°C° 0 mm 3 mps 636 mmHg 60%
    19:00 +14°C° 0 mm 3 mps 636 mmHg 66%
    20:00 +12°C° 0 mm 3 mps 636 mmHg 72%
    21:00 +10°C° 0 mm 3 mps 635 mmHg 79%
    22:00 +10°C° 0 mm 2 mps 635 mmHg 78%
    23:00 +9°C° 0 mm 2 mps 635 mmHg 78%

    Tomorrow, 21 January, Monday

    Time Temperature Precipitation Wind Pressure Humidity
    00:00 +9°C° 0 mm 2 mps 635 mmHg 78%
    01:00 +8°C° 0 mm 2 mps 635 mmHg 78%
    02:00 +8°C° 0 mm 2 mps 634 mmHg 78%
    03:00 +8°C° 0 mm 2 mps 634 mmHg 78%
    04:00 +7°C° 0 mm 2 mps 634 mmHg 77%
    05:00 +7°C° 0 mm 2 mps 634 mmHg 76%
    06:00 +7°C° 0 mm 2 mps 633 mmHg 75%
    07:00 +9°C° 0 mm 2 mps 634 mmHg 66%
    08:00 +13°C° 0 mm 2 mps 635 mmHg 56%
    09:00 +15°C° 0 mm 2 mps 637 mmHg 47%
    10:00 +19°C° 0 mm 1 mps 637 mmHg 39%
    11:00 +22°C° 0 mm 1 mps 638 mmHg 31%
    12:00 +25°C° 0 mm 1 mps 639 mmHg 23%
    13:00 +25°C° 0 mm 1 mps 638 mmHg 22%
    14:00 +26°C° 0 mm 1 mps 637 mmHg 21%
    15:00 +26°C° 0 mm 1 mps 637 mmHg 20%
    16:00 +24°C° 0 mm 1 mps 636 mmHg 27%
    17:00 +22°C° 0 mm 1 mps 636 mmHg 34%
    18:00 +20°C° 0 mm 1 mps 635 mmHg 41%
    19:00 +19°C° 0 mm 1 mps 635 mmHg 47%
    20:00 +16°C° 0 mm 1 mps 635 mmHg 53%
    21:00 +14°C° 0 mm 1 mps 635 mmHg 59%
    22:00 +14°C° 0 mm 1 mps 634 mmHg 60%
    23:00 +13°C° 0 mm 1 mps 634 mmHg 62%

    Day after tomorrow, 22 January, Tuesday

    Time Temperature Precipitation Wind Pressure Humidity
    00:00 +13°C° 0 mm 1 mps 634 mmHg 63%
    01:00 +13°C° 0 mm 1 mps 634 mmHg 63%
    02:00 +12°C° 0 mm 1 mps 633 mmHg 62%
    03:00 +12°C° 0 mm 1 mps 632 mmHg 61%
    04:00 +12°C° 0 mm 1 mps 632 mmHg 60%
    05:00 +12°C° 0 mm 1 mps 632 mmHg 58%
    06:00 +11°C° 0 mm 1 mps 632 mmHg 57%
    07:00 +14°C° 0 mm 1 mps 633 mmHg 50%
    08:00 +18°C° 0 mm 1 mps 635 mmHg 43%
    09:00 +20°C° 0 mm 1 mps 636 mmHg 36%
    10:00 +22°C° 0 mm 1 mps 636 mmHg 32%
    11:00 +24°C° 0 mm 2 mps 637 mmHg 28%
    12:00 +26°C° 0 mm 2 mps 637 mmHg 23%
    13:00 +27°C° 0 mm 2 mps 636 mmHg 23%
    14:00 +27°C° 0 mm 3 mps 636 mmHg 23%
    15:00 +27°C° 0 mm 3 mps 635 mmHg 23%
    16:00 +26°C° 0 mm 3 mps 634 mmHg 29%
    17:00 +24°C° 0 mm 2 mps 634 mmHg 36%
    18:00 +21°C° 0 mm 2 mps 634 mmHg 42%
    19:00 +19°C° 0 mm 2 mps 634 mmHg 46%
    20:00 +18°C° 0 mm 1 mps 634 mmHg 51%
    21:00 +16°C° 0 mm 1 mps 633 mmHg 56%
    22:00 +15°C° 0 mm 1 mps 633 mmHg 59%
    23:00 +15°C° 0 mm 1 mps 633 mmHg 61%

    23 January, Wednesday

    Time Temperature Precipitation Wind Pressure Humidity
    00:00 +14°C° 0 mm 1 mps 633 mmHg 64%
    01:00 +14°C° 0 mm 1 mps 632 mmHg 65%
    02:00 +13°C° 0 mm 1 mps 632 mmHg 67%
    03:00 +13°C° 0 mm 1 mps 631 mmHg 68%
    04:00 +13°C° 0 mm 1 mps 631 mmHg 68%
    05:00 +13°C° 0 mm 1 mps 631 mmHg 67%
    06:00 +13°C° 0 mm 1 mps 631 mmHg 67%
    07:00 +15°C° 0 mm 1 mps 632 mmHg 58%
    08:00 +18°C° 0 mm 1 mps 634 mmHg 50%
    09:00 +21°C° 0 mm 1 mps 635 mmHg 42%
    10:00 +23°C° 0 mm 1 mps 636 mmHg 36%
    11:00 +26°C° 0 mm 1 mps 636 mmHg 30%
    12:00 +28°C° 0 mm 1 mps 637 mmHg 24%
    13:00 +28°C° 0 mm 1 mps 637 mmHg 24%
    14:00 +28°C° 0 mm 2 mps 636 mmHg 23%
    15:00 +29°C° 0 mm 2 mps 636 mmHg 23%
    16:00 +26°C° 0 mm 2 mps 635 mmHg 31%
    17:00 +24°C° 0 mm 2 mps 635 mmHg 40%
    18:00 +21°C° 0 mm 3 mps 635 mmHg 49%
    19:00 +20°C° 0 mm 2 mps 635 mmHg 59%
    20:00 +18°C° 0 mm 2 mps 635 mmHg 70%
    21:00 +16°C° 0 mm 2 mps 636 mmHg 80%
    22:00 +16°C° 0 mm 2 mps 636 mmHg 82%
    23:00 +15°C° 0 mm 2 mps 635 mmHg 84%

    24 January, Thursday

    Time Temperature Precipitation Wind Pressure Humidity
    00:00 +15°C° 0 mm 2 mps 635 mmHg 86%
    01:00 +14°C° 0 mm 2 mps 635 mmHg 86%
    02:00 +14°C° 0 mm 2 mps 634 mmHg 86%
    03:00 +13°C° 0 mm 2 mps 634 mmHg 86%
    04:00 +13°C° 0 mm 2 mps 634 mmHg 86%
    05:00 +12°C° 0 mm 2 mps 634 mmHg 86%
    06:00 +12°C° 0 mm 2 mps 634 mmHg 86%
    07:00 +13°C° 0 mm 2 mps 635 mmHg 79%
    08:00 +14°C° 0 mm 2 mps 635 mmHg 73%
    09:00 +15°C° 0 mm 2 mps 636 mmHg 67%
    10:00 +17°C° 0 mm 2 mps 637 mmHg 58%
    11:00 +20°C° 0 mm 2 mps 637 mmHg 49%
    12:00 +23°C° 0 mm 2 mps 638 mmHg 41%
    13:00 +24°C° 0 mm 2 mps 637 mmHg 39%
    14:00 +25°C° 0 mm 2 mps 637 mmHg 37%
    15:00 +26°C° 0 mm 2 mps 636 mmHg 35%
    16:00 +24°C° 0 mm 2 mps 636 mmHg 42%
    17:00 +21°C° 0 mm 2 mps 636 mmHg 49%
    18:00 +20°C° 0 mm 2 mps 635 mmHg 56%
    19:00 +18°C° 0 mm 2 mps 635 mmHg 64%
    20:00 +16°C° 0 mm 2 mps 635 mmHg 72%
    21:00 +14°C° 0 mm 2 mps 635 mmHg 80%
    22:00 +13°C° 0 mm 2 mps 635 mmHg 81%
    23:00 +13°C° 0 mm 1 mps 634 mmHg 81%

    25 January, Friday

    Time Temperature Precipitation Wind Pressure Humidity
    00:00 +13°C° 0 mm 1 mps 634 mmHg 82%
    01:00 +12°C° 0 mm 1 mps 634 mmHg 82%
    02:00 +12°C° 0 mm 1 mps 634 mmHg 82%
    03:00 +12°C° 0 mm 1 mps 633 mmHg 81%
    04:00 +12°C° 0 mm 1 mps 633 mmHg 81%
    05:00 +12°C° 0 mm 1 mps 634 mmHg 81%
    06:00 +12°C° 0 mm 2 mps 634 mmHg 80%
    07:00 +13°C° 0 mm 2 mps 635 mmHg 73%
    08:00 +15°C° 0 mm 2 mps 636 mmHg 65%
    09:00 +17°C° 0 mm 2 mps 638 mmHg 58%
    10:00 +19°C° 0 mm 3 mps 638 mmHg 53%
    11:00 +20°C° 0 mm 3 mps 639 mmHg 48%
    12:00 +22°C° 0 mm 3 mps 639 mmHg 43%
    13:00 +22°C° 0 mm 3 mps 638 mmHg 44%
    14:00 +22°C° 0 mm 4 mps 638 mmHg 45%
    15:00 +22°C° 0 mm 4 mps 637 mmHg 46%
    16:00 +20°C° 0 mm 4 mps 637 mmHg 53%
    17:00 +19°C° 0 mm 4 mps 637 mmHg 59%
    18:00 +17°C° 0 mm 3 mps 636 mmHg 65%
    19:00 +14°C° 0 mm 3 mps 636 mmHg 72%
    20:00 +13°C° 0 mm 3 mps 636 mmHg 78%
    21:00 +13°C° 0 mm 2 mps 636 mmHg 85%
    22:00 +12°C° 0 mm 2 mps 636 mmHg 85%
    23:00 +12°C° 0 mm 2 mps 636 mmHg 84%
    Show more